Retour au catalogue

USA 355

ActifMilitaireVLEO
NORAD 59815·PAYLOAD·🇺🇸 United States

Lancé May 22, 2024 depuis Vandenberg Space Force Base

Loading…

Prochains Passages (prochaines 24 heures)

TLE

PériméSource: Mike McCants

Époque: Aug 23, 2026, 20:57 UTC

1 59815U 24096B   26235.87341122 0.00000000  00000-0  00000-0 0    08
2 59815  70.0200 157.1811 0003000  97.7021 262.2979 14.96712645    04

Suivez USA 355 en temps réel avec AllMySat

Download on the App Store